Wetbulb
67.21 70.61 75.58 75.90 76.25 76.32 76.69 76.10 75.89 75.65 75.98 76.40 76.09 76.12 75.95 75.33 75.47 75.56 75.98 76.73 76.76 76.72 76.82 77.03 77.21 77.03 77.12 76.91 77.24 76.99 76.81 76.85 76.53 76.58 76.39 76.32 75.95 75.79 75.04 75.42 75.22 73.35 74.34
69.02 71.99 75.67 76.05 76.03 76.19 76.72 76.30 75.89 75.56 75.66 76.83 76.31 76.53 76.36 74.51 74.41 75.07 75.38 76.07 76.29 76.34 76.59 76.50 77.02 76.92 76.53 76.74 76.70 76.91 76.66 76.38 76.25 76.67 75.69 75.20 75.28 75.19 75.35 75.07 74.68 73.81 74.47
70.00 72.91 74.94 76.86 76.19 76.24 76.68 76.74 76.11 75.75 75.78 76.47 76.16 76.26 75.84 75.42 75.14 75.65 75.13 75.37 76.10 75.87 76.53 76.35 76.77 76.84 76.63 77.06 76.85 76.91 76.52 76.36 76.43 76.12 76.23 74.20 74.28 75.42 75.36 74.94 73.87 75.23 75.11
71.96 72.96 74.47 77.15 76.73 76.53 76.75 76.57 76.26 75.83 76.27 76.17 75.98 76.18 76.01 76.15 75.38 76.24 75.90 76.03 75.73 76.10 76.37 76.35 76.33 76.40 76.74 76.82 76.58 76.84 76.56 76.15 76.27 75.44 73.44 73.76 73.81 75.27 75.56 75.27 74.19 72.99 73.42
72.23 73.41 74.51 76.86 76.65 76.67 76.48 76.51 76.55 75.94 76.22 76.49 76.16 75.95 75.74 75.86 75.80 75.36 75.91 75.63 75.68 75.96 76.11 76.02 76.13 76.27 75.72 76.08 75.91 76.72 76.33 76.06 75.33 73.64 72.91 73.29 74.25 75.04 75.19 75.00 74.27 74.77 74.59
72.80 73.95 76.29 76.64 76.74 76.92 76.64 76.69 76.27 76.12 76.18 75.90 76.19 75.86 75.90 76.03 75.96 76.18 75.79 75.73 75.66 75.67 75.85 75.88 75.97 76.19 75.75 75.68 75.83 76.30 76.08 75.78 75.06 73.98 74.26 74.50 73.82 75.02 74.58 73.84 74.20 74.03 73.60
72.02 73.66 74.84 77.27 76.74 76.42 76.36 76.61 76.42 76.40 76.25 75.70 76.25 75.87 75.84 75.96 75.85 75.66 75.75 75.72 75.39 75.53 75.71 75.44 75.60 75.69 75.66 75.85 75.83 76.50 76.16 75.49 73.18 73.33 72.69 73.48 74.80 75.56 74.06 72.68 75.27 73.31 74.31
72.41 73.76 74.63 76.57 76.52 76.82 76.68 76.58 76.62 76.46 76.01 75.95 75.98 75.66 75.81 75.66 75.65 75.94 75.60 75.48 75.03 75.28 75.14 75.17 75.74 75.47 75.49 76.54 76.70 76.76 76.02 75.28 73.59 72.76 72.84 74.30 75.33 74.13 73.04 72.96 73.21 74.18 74.59
73.50 73.47 74.14 74.53 75.65 76.90 76.55 76.74 76.53 76.33 76.53 76.11 76.20 75.90 75.66 75.91 75.52 75.27 75.27 75.64 75.18 74.52 75.11 75.58 75.35 75.74 75.88 76.07 76.49 76.36 75.61 74.93 72.81 73.19 73.50 74.55 74.65 73.76 74.98 75.05 74.96 74.55 73.83
73.24 73.60 73.17 74.01 74.54 74.35 74.72 76.81 76.67 76.64 76.43 76.20 75.93 76.05 75.88 75.64 75.23 75.15 76.09 76.27 75.24 75.11 75.36 75.33 75.38 75.25 75.98 76.43 76.24 76.05 75.23 74.94 73.26 73.33 73.15 74.11 74.70 73.62 74.68 74.44 74.13 72.95 74.08
72.54 72.16 72.67 73.04 73.26 73.59 74.21 75.68 76.57 76.79 76.34 76.09 75.59 75.91 74.98 72.71 73.59 74.52 75.40 76.17 75.33 75.06 75.50 75.15 74.92 74.84 76.16 76.33 76.50 76.00 74.82 73.38 73.14 73.28 73.52 74.35 75.33 74.87 74.86 75.02 74.79 73.33 74.30
70.68 71.67 72.07 72.65 72.64 73.36 75.12 74.18 74.03 74.88 74.37 74.25 73.68 72.56 72.54 72.65 72.82 73.97 75.28 76.14 75.64 75.36 75.11 74.78 75.06 75.54 73.61 73.45 75.47 75.39 72.66 72.96 73.11 73.36 73.96 75.07 75.91 74.71 75.14 74.22 73.36 73.29 73.71
70.45 72.26 71.67 72.25 72.60 73.10 73.59 73.25 73.19 73.31 73.50 73.05 72.56 72.05 72.21 72.04 73.10 72.79 73.01 72.84 73.16 74.18 72.76 72.66 71.99 72.34 72.04 71.89 72.99 72.12 72.71 72.74 73.33 73.68 74.04 75.52 75.60 73.84 74.51 73.08 73.61 74.08 73.57
69.76 71.42 71.66 72.24 72.25 72.55 73.13 72.65 72.75 72.72 72.25 72.02 72.10 72.20 71.38 71.11 72.01 71.94 71.84 72.33 71.99 71.66 70.63 71.22 71.06 71.67 71.94 72.02 72.12 71.60 72.31 72.74 72.81 73.63 74.63 75.36 75.68 73.81 73.50 73.08 73.84 73.45 73.40
69.31 70.28 70.98 71.75 71.73 71.81 72.50 72.23 72.45 72.31 72.21 72.04 71.78 72.14 71.33 70.99 71.04 71.15 71.53 70.97 71.44 72.01 71.07 71.12 71.25 71.03 71.50 71.40 71.50 71.53 71.60 72.27 72.69 73.58 74.33 74.48 74.92 74.31 73.51 73.73 73.59 72.78 73.34
68.34 68.37 70.62 71.23 70.95 71.06 71.78 71.84 71.87 71.95 72.61 72.51 71.90 71.69 70.89 71.03 71.17 71.69 71.07 70.23 71.03 72.16 71.64 71.59 71.19 71.60 71.09 70.35 70.76 71.42 71.65 72.15 72.90 73.07 73.88 74.08 74.51 74.34 74.01 73.80 73.76 73.59 73.21
67.41 67.92 69.45 70.50 70.61 70.52 71.52 71.75 71.62 71.86 72.60 71.62 71.62 71.61 70.81 70.87 71.14 71.93 71.48 69.96 70.34 71.69 71.30 71.69 71.59 71.64 70.50 70.39 70.18 71.11 71.60 71.95 72.57 73.12 73.68 73.71 74.35 75.08 74.95 74.39 74.25 73.99 73.64
67.52 67.45 69.06 72.01 70.17 70.10 70.65 71.24 71.16 71.63 71.95 71.77 71.03 71.09 71.85 72.59 72.12 71.07 70.78 70.34 70.88 71.63 71.15 70.56 71.04 71.10 70.10 69.76 69.56 70.00 70.18 71.06 71.78 72.29 72.74 73.11 73.36 74.18 74.36 75.04 75.48 74.82 74.50
67.89 67.63 68.77 70.15 69.47 69.73 70.21 70.86 70.38 71.59 71.27 72.03 70.74 70.01 71.88 72.67 72.87 70.75 71.48 71.37 71.98 72.02 70.67 70.11 70.86 70.09 69.29 69.44 69.10 69.66 69.74 69.69 70.32 70.77 70.94 71.60 72.37 73.56 73.16 73.16 74.75 75.71 75.40
68.22 68.41 69.24 69.83 69.53 69.46 70.08 70.21 69.81 70.46 71.42 72.00 71.28 70.66 72.50 73.09 72.42 71.81 71.67 71.83 72.04 71.86 70.98 69.62 70.55 68.96 69.01 69.17 68.98 68.93 69.39 69.88 69.83 69.46 69.77 70.36 70.95 71.64 72.22 71.68 72.04 72.17 74.48
68.19 67.83 68.10 68.76 69.00 69.23 68.82 68.33 68.55 68.88 70.51 71.93 72.15 72.43 72.74 73.08 72.54 71.34 71.35 70.93 72.02 71.06 70.93 70.05 69.18 68.73 68.44 68.38 68.26 67.55 67.67 69.00 69.39 69.93 70.55 70.81 70.91 71.35 71.31 71.44 71.14 71.30 71.39
67.55 67.96 68.05 69.11 68.42 69.71 69.68 69.22 69.75 69.66 70.87 72.16 72.65 72.70 73.70 73.54 72.51 72.13 72.01 72.55 71.58 69.49 71.29 71.00 69.64 67.51 67.45 68.13 66.71 64.94 64.03 65.38 66.35 68.50 68.89 69.69 70.38 71.58 72.31 72.50 72.44 72.51 72.56
67.13 67.72 68.19 69.07 68.61 69.87 69.64 69.36 69.75 70.52 70.53 70.96 71.37 71.97 73.38 73.57 72.46 72.09 72.26 72.34 71.23 70.46 70.53 70.80 69.19 68.66 67.22 67.89 68.35 66.84 63.64 62.35 63.24 67.17 67.11 67.66 69.22 69.82 70.84 71.52 72.51 73.19 73.30
67.15 68.56 69.00 69.12 68.77 69.69 69.26 69.27 69.14 68.71 68.45 70.13 70.87 71.65 73.29 74.18 72.39 71.88 72.87 72.84 72.19 70.87 71.22 70.74 69.88 69.04 68.40 67.25 69.31 69.00 66.69 66.02 64.71 63.79 65.60 66.11 67.73 68.14 69.61 70.07 70.64 71.75 72.87
67.45 68.08 69.00 69.17 68.81 69.28 69.12 69.62 68.97 68.56 69.39 69.98 70.56 70.69 71.95 73.36 73.25 72.77 73.36 73.10 72.37 71.75 71.87 72.31 71.12 69.91 68.77 68.62 68.75 67.28 68.43 66.77 66.35 64.16 64.05 66.07 67.96 69.10 69.32 69.28 70.10 70.69 71.46
67.34 67.99 68.93 68.56 68.43 69.14 69.31 68.43 68.74 68.72 68.68 68.90 69.40 69.83 70.40 71.87 73.07 73.24 73.11 72.76 73.00 71.88 71.90 72.35 72.88 71.25 70.89 70.59 70.18 69.56 68.73 66.92 66.03 65.86 64.48 65.83 65.24 68.23 68.76 69.84 69.93 70.33 70.80
MSLP
1016.02 1015.89 1015.78 1015.85 1015.93 1016.06 1016.18 1016.36 1016.66 1016.76 1016.77 1016.83 1017.01 1017.12 1017.09 1017.11 1017.20 1017.27 1017.35 1017.34 1017.41 1017.48 1017.53 1017.53 1017.60 1017.65 1017.63 1017.65 1017.73 1017.91 1018.00 1018.13 1018.30 1018.34 1018.48 1018.62 1018.69 1018.81 1018.91 1018.97 1019.06 1019.15 1019.30
1015.41 1015.87 1015.83 1015.95 1016.10 1016.22 1016.37 1016.57 1016.78 1016.89 1016.97 1017.03 1017.05 1017.15 1017.25 1017.39 1017.45 1017.49 1017.53 1017.63 1017.70 1017.75 1017.78 1017.89 1017.95 1017.95 1017.96 1018.03 1018.19 1018.28 1018.35 1018.47 1018.58 1018.51 1018.72 1019.00 1019.06 1019.21 1019.23 1019.31 1019.54 1019.55 1019.63
1015.57 1015.81 1015.90 1016.05 1016.27 1016.44 1016.61 1016.80 1016.95 1017.07 1017.15 1017.24 1017.32 1017.42 1017.61 1017.69 1017.66 1017.65 1017.71 1017.88 1017.95 1018.06 1018.12 1018.19 1018.17 1018.29 1018.33 1018.40 1018.53 1018.59 1018.74 1018.87 1018.94 1019.03 1019.21 1019.41 1019.50 1019.66 1019.60 1019.70 1019.94 1019.94 1019.90
1015.47 1015.85 1016.00 1016.18 1016.44 1016.65 1016.91 1017.15 1017.22 1017.31 1017.40 1017.55 1017.72 1017.92 1017.92 1017.86 1017.91 1017.83 1017.87 1018.02 1018.18 1018.29 1018.39 1018.48 1018.51 1018.60 1018.61 1018.71 1018.94 1018.97 1019.06 1019.21 1019.41 1019.55 1019.65 1019.80 1019.80 1019.97 1019.97 1020.10 1020.24 1020.34 1020.39
1015.61 1015.91 1016.14 1016.37 1016.62 1016.88 1017.09 1017.22 1017.35 1017.50 1017.71 1017.87 1017.95 1018.10 1018.11 1018.10 1018.14 1018.07 1018.18 1018.23 1018.44 1018.65 1018.75 1018.77 1018.78 1018.79 1019.01 1019.06 1019.02 1019.32 1019.41 1019.65 1019.82 1019.99 1020.08 1020.13 1020.17 1020.37 1020.45 1020.54 1020.61 1020.76 1020.81
1015.85 1016.10 1016.19 1016.50 1016.77 1017.07 1017.35 1017.48 1017.59 1017.75 1017.95 1018.09 1018.16 1018.35 1018.32 1018.43 1018.46 1018.40 1018.57 1018.68 1018.76 1018.97 1019.02 1019.09 1019.13 1019.19 1019.29 1019.33 1019.37 1019.55 1019.81 1020.05 1020.23 1020.41 1020.44 1020.44 1020.56 1020.61 1020.80 1020.91 1020.97 1021.04 1021.17
1016.15 1016.27 1016.39 1016.60 1016.95 1017.28 1017.52 1017.67 1017.80 1017.98 1018.12 1018.25 1018.33 1018.48 1018.60 1018.70 1018.76 1018.83 1018.86 1018.88 1019.04 1019.20 1019.31 1019.38 1019.57 1019.58 1019.59 1019.51 1019.64 1019.82 1020.18 1020.49 1020.71 1020.82 1020.89 1020.88 1020.91 1021.02 1021.15 1021.24 1021.29 1021.45 1021.46
1016.27 1016.46 1016.63 1016.83 1017.17 1017.41 1017.64 1017.74 1017.97 1018.21 1018.38 1018.47 1018.63 1018.75 1018.85 1019.05 1019.07 1019.09 1019.22 1019.18 1019.39 1019.43 1019.61 1019.73 1019.85 1019.87 1020.03 1020.03 1019.83 1020.23 1020.54 1020.82 1021.01 1021.18 1021.26 1021.24 1021.32 1021.35 1021.49 1021.68 1021.77 1021.77 1021.81
1016.47 1016.71 1016.91 1017.09 1017.29 1017.47 1017.67 1017.89 1018.19 1018.35 1018.55 1018.76 1018.83 1018.97 1019.13 1019.14 1019.37 1019.46 1019.65 1019.53 1019.57 1019.75 1019.95 1020.00 1020.11 1020.17 1020.23 1020.37 1020.39 1020.57 1020.88 1021.17 1021.35 1021.50 1021.51 1021.57 1021.60 1021.64 1021.83 1021.89 1022.03 1022.07 1022.08
1016.88 1017.05 1017.17 1017.29 1017.52 1017.85 1017.95 1018.11 1018.32 1018.49 1018.67 1018.89 1019.03 1019.19 1019.20 1019.35 1019.60 1019.70 1019.81 1019.73 1019.89 1020.10 1020.23 1020.31 1020.40 1020.46 1020.49 1020.52 1020.71 1020.89 1021.21 1021.60 1021.76 1021.85 1021.91 1021.83 1021.85 1021.92 1021.99 1022.14 1022.27 1022.33 1022.31
1017.39 1017.56 1017.47 1017.61 1017.87 1018.13 1018.21 1018.29 1018.52 1018.73 1018.91 1019.11 1019.27 1019.37 1019.59 1019.96 1020.11 1020.14 1020.01 1020.02 1020.21 1020.41 1020.52 1020.63 1020.71 1020.74 1020.72 1020.74 1020.89 1021.18 1021.61 1021.95 1021.99 1022.05 1022.02 1022.01 1022.08 1022.15 1022.19 1022.31 1022.46 1022.58 1022.58
1017.48 1017.78 1017.81 1017.90 1018.19 1018.34 1018.31 1018.58 1018.90 1019.08 1019.30 1019.55 1019.75 1019.90 1020.08 1020.22 1020.35 1020.41 1020.31 1020.35 1020.56 1020.75 1020.81 1020.91 1020.99 1021.11 1021.20 1021.22 1021.29 1021.55 1021.90 1022.07 1022.23 1022.28 1022.27 1022.19 1022.19 1022.31 1022.42 1022.56 1022.68 1022.79 1022.85
1017.32 1017.87 1018.01 1018.09 1018.35 1018.49 1018.69 1018.93 1019.15 1019.51 1019.69 1019.94 1020.17 1020.25 1020.41 1020.51 1020.68 1020.93 1020.98 1021.07 1021.17 1021.23 1021.33 1021.38 1021.55 1021.69 1021.65 1021.71 1021.87 1021.93 1022.10 1022.29 1022.39 1022.42 1022.44 1022.46 1022.47 1022.44 1022.58 1022.74 1022.89 1023.07 1023.15
1017.42 1017.80 1018.11 1018.23 1018.55 1018.63 1018.94 1019.12 1019.33 1019.62 1019.97 1020.33 1020.54 1020.55 1020.68 1020.81 1020.96 1021.18 1021.36 1021.49 1021.60 1021.71 1021.87 1021.86 1021.91 1022.02 1021.96 1021.90 1022.01 1022.17 1022.28 1022.43 1022.60 1022.75 1022.72 1022.69 1022.67 1022.77 1022.93 1022.99 1023.12 1023.25 1023.31
1017.53 1017.85 1018.16 1018.39 1018.66 1018.74 1019.11 1019.32 1019.53 1019.73 1020.03 1020.37 1020.66 1020.73 1020.80 1021.02 1021.13 1021.45 1021.55 1021.79 1021.92 1021.97 1022.08 1022.17 1022.27 1022.27 1022.13 1022.09 1022.19 1022.35 1022.55 1022.69 1022.87 1022.95 1022.95 1022.92 1022.99 1023.06 1023.15 1023.23 1023.27 1023.43 1023.45
1017.54 1017.80 1018.15 1018.61 1018.69 1018.86 1019.13 1019.39 1019.55 1019.71 1019.94 1020.29 1020.58 1020.76 1020.94 1021.09 1021.26 1021.48 1021.69 1021.83 1022.13 1022.22 1022.27 1022.41 1022.33 1022.30 1022.22 1022.25 1022.39 1022.65 1022.83 1022.95 1023.02 1023.11 1023.14 1023.25 1023.26 1023.35 1023.41 1023.47 1023.46 1023.50 1023.49
1017.18 1017.57 1018.01 1018.51 1018.72 1018.87 1019.09 1019.33 1019.53 1019.69 1019.99 1020.24 1020.53 1020.73 1021.01 1021.28 1021.33 1021.41 1021.54 1021.78 1021.94 1022.25 1022.35 1022.44 1022.44 1022.41 1022.42 1022.37 1022.61 1022.89 1023.06 1023.19 1023.20 1023.29 1023.37 1023.47 1023.50 1023.41 1023.51 1023.57 1023.53 1023.57 1023.57
1017.09 1017.47 1017.81 1018.31 1018.73 1018.87 1019.02 1019.27 1019.46 1019.70 1019.99 1020.25 1020.51 1020.79 1020.98 1021.13 1021.37 1021.50 1021.65 1021.77 1021.89 1022.05 1022.33 1022.41 1022.45 1022.63 1022.84 1022.78 1023.01 1023.22 1023.39 1023.43 1023.37 1023.39 1023.49 1023.53 1023.52 1023.46 1023.57 1023.49 1023.50 1023.53 1023.52
1016.59 1017.19 1017.58 1018.12 1018.54 1018.85 1018.94 1019.23 1019.49 1019.71 1020.17 1020.25 1020.54 1020.79 1021.02 1021.20 1021.38 1021.51 1021.67 1021.88 1021.85 1021.95 1022.27 1022.23 1022.65 1022.80 1023.02 1023.15 1023.23 1023.39 1023.45 1023.51 1023.40 1023.27 1023.41 1023.49 1023.50 1023.45 1023.47 1023.51 1023.49 1023.43 1023.35
1016.44 1016.87 1017.40 1017.78 1018.29 1018.72 1018.90 1019.35 1019.73 1019.91 1020.11 1020.30 1020.47 1020.71 1020.99 1021.23 1021.37 1021.44 1021.55 1021.89 1021.93 1022.05 1022.51 1022.63 1022.82 1023.02 1023.22 1023.37 1023.45 1023.55 1023.50 1023.40 1023.40 1023.34 1023.24 1023.23 1023.28 1023.29 1023.31 1023.39 1023.35 1023.29 1023.25
1016.36 1017.04 1017.29 1017.65 1017.97 1018.52 1019.11 1019.55 1019.93 1019.98 1020.10 1020.31 1020.37 1020.55 1020.86 1021.12 1021.33 1021.63 1021.70 1022.05 1022.10 1022.28 1022.54 1022.71 1023.04 1023.31 1023.51 1023.57 1023.71 1023.82 1023.61 1023.44 1023.33 1023.11 1023.08 1023.07 1023.00 1022.94 1023.03 1023.06 1023.13 1023.13 1023.07
1015.65 1016.48 1017.15 1017.52 1017.80 1018.12 1018.52 1018.89 1019.17 1019.49 1019.85 1020.00 1020.21 1020.45 1020.79 1020.93 1021.25 1021.56 1021.79 1021.94 1022.16 1022.38 1022.56 1022.80 1022.99 1023.38 1023.57 1023.63 1023.97 1024.23 1024.20 1023.66 1023.27 1023.03 1022.93 1022.87 1022.77 1022.74 1022.63 1022.66 1022.74 1022.73 1022.69
1015.26 1015.90 1016.61 1016.91 1017.43 1017.91 1018.26 1018.87 1019.26 1019.47 1019.91 1020.29 1020.48 1020.62 1020.57 1020.81 1021.02 1021.36 1021.71 1021.95 1022.06 1022.29 1022.58 1022.82 1022.93 1023.11 1023.47 1023.71 1023.86 1024.18 1024.44 1024.35 1023.95 1023.13 1022.93 1022.76 1022.61 1022.53 1022.39 1022.38 1022.39 1022.32 1022.29
1014.91 1015.19 1015.88 1016.64 1017.23 1017.68 1018.18 1018.56 1018.81 1019.15 1019.75 1019.97 1019.97 1020.29 1020.38 1020.61 1020.95 1021.24 1021.54 1021.76 1021.91 1022.20 1022.51 1022.59 1022.70 1023.07 1023.30 1023.58 1023.85 1024.09 1024.16 1024.27 1024.29 1023.87 1023.10 1022.74 1022.50 1022.28 1022.06 1022.07 1022.03 1021.93 1021.90
1014.45 1015.01 1015.50 1016.22 1017.08 1017.57 1017.93 1018.11 1018.55 1019.11 1019.35 1019.61 1019.97 1020.19 1020.50 1020.58 1020.85 1020.96 1021.26 1021.62 1021.81 1022.10 1022.25 1022.46 1022.78 1022.98 1023.15 1023.42 1023.73 1023.95 1024.04 1024.19 1024.29 1024.35 1023.80 1023.14 1022.56 1022.13 1021.86 1021.77 1021.65 1021.59 1021.55
1014.06 1014.69 1015.31 1015.93 1016.61 1017.31 1017.64 1017.93 1018.25 1018.70 1019.21 1019.64 1019.98 1020.21 1020.38 1020.55 1020.69 1020.95 1021.12 1021.45 1021.67 1022.00 1022.12 1022.20 1022.38 1022.76 1023.07 1023.27 1023.59 1023.81 1023.91 1024.07 1024.11 1024.21 1024.15 1023.67 1023.46 1022.51 1021.94 1021.61 1021.53 1021.41 1021.37
Wind_Speed
5 5 10 9 10 10 11 12 12 12 13 13 13 12 13 12 11 11 10 10 12 12 12 11 14 13 14 13 14 14 14 14 15 16 17 16 16 16 17 16 17 13 16
9 6 11 10 9 8 10 10 10 11 12 11 12 10 12 10 10 9 9 9 11 11 12 12 12 12 13 13 13 14 14 13 14 16 16 16 16 15 15 16 15 15 17
10 5 7 9 9 8 10 10 9 10 10 9 9 9 10 10 9 8 9 9 9 10 12 12 11 12 12 14 13 14 14 15 16 16 16 7 10 16 14 17 15 15 16
10 5 5 9 9 9 10 10 9 9 8 8 8 8 7 8 9 9 9 11 8 10 11 12 11 10 12 12 13 13 14 14 14 13 7 8 10 15 14 15 16 15 15
8 5 5 12 10 10 10 10 8 8 7 8 8 8 7 8 9 10 9 10 10 10 11 12 11 10 10 10 11 13 14 14 14 10 7 6 6 12 15 15 15 14 12
7 6 10 13 12 11 10 9 8 8 8 8 9 8 7 8 9 10 10 10 10 11 9 10 10 10 8 8 9 13 13 13 11 7 7 8 6 12 15 13 13 13 13
7 5 7 12 11 10 9 9 9 8 7 8 8 7 7 7 8 9 9 10 10 11 10 9 9 8 8 9 12 14 14 11 6 6 6 6 8 13 13 12 12 12 11
9 5 6 11 11 10 10 9 8 8 8 9 8 7 7 8 6 8 9 9 10 11 10 10 9 9 10 12 12 14 13 11 7 6 6 6 9 12 12 11 11 11 11
6 6 5 5 9 11 10 10 9 9 8 8 9 8 7 8 6 8 8 10 10 11 10 10 10 11 10 10 11 11 10 11 7 4 6 5 10 11 10 10 11 12 11
5 4 5 5 5 6 5 11 10 9 8 7 8 9 7 7 6 9 7 9 10 10 10 9 8 9 9 7 11 12 12 11 5 5 4 5 8 10 10 10 10 9 8
5 4 4 5 5 5 4 6 8 9 9 7 6 6 5 4 5 5 6 10 10 10 10 9 8 7 9 9 10 11 9 3 4 4 3 5 6 8 8 9 10 8 8
11 4 4 5 5 4 2 5 4 3 4 4 4 5 3 4 3 3 5 10 10 10 9 8 7 8 6 3 3 7 3 4 3 3 2 3 6 8 8 8 7 7 6
13 7 5 5 5 4 4 3 2 2 2 3 4 3 3 3 3 3 3 3 3 6 3 4 4 3 2 1 2 3 4 4 3 2 2 4 6 5 7 6 5 6 5
13 10 5 5 5 4 3 2 3 2 2 2 2 1 2 2 2 2 2 3 3 3 3 2 2 3 3 2 1 3 4 4 2 1 1 3 3 4 4 4 3 3 3
11 6 6 5 5 4 4 3 3 3 3 3 2 1 2 3 3 2 2 2 2 2 3 2 3 2 3 2 2 4 4 4 3 1 0 2 0 1 2 2 3 1 1
8 6 6 6 5 5 4 4 3 3 3 3 2 2 3 2 2 2 2 2 2 2 1 2 1 1 3 1 2 3 3 3 3 3 1 2 3 3 3 3 3 2 2
10 8 8 7 5 6 6 5 3 3 3 3 3 3 4 4 3 3 1 1 1 2 2 2 1 2 3 3 3 3 2 2 2 2 1 1 2 5 6 5 4 4 4
9 10 8 9 7 6 6 5 3 3 3 3 3 3 4 3 4 3 2 1 1 0 2 2 2 2 2 2 1 1 1 1 2 3 2 3 2 3 4 7 6 6 7
11 11 11 8 9 8 5 4 3 3 3 2 3 3 4 3 3 3 2 1 0 0 2 2 3 2 0 2 1 1 0 2 3 3 4 4 4 4 3 5 7 7 9
9 9 9 9 8 7 3 3 2 2 2 3 3 3 4 3 3 3 2 1 1 0 2 2 2 2 1 2 2 1 2 2 3 3 5 4 5 6 5 5 4 4 9
8 7 9 10 8 7 3 3 2 3 2 2 3 4 4 4 3 3 2 3 2 1 2 2 2 2 2 1 2 2 2 3 5 5 4 5 6 6 6 5 4 4 4
15 12 9 10 7 8 4 3 3 3 2 2 2 2 4 5 5 4 3 3 3 1 3 2 2 2 2 1 2 1 3 3 2 5 4 5 7 5 7 7 7 7 6
16 15 13 14 11 9 6 4 3 4 3 2 2 2 3 4 4 4 4 4 4 3 3 3 3 3 2 1 1 3 1 1 3 1 2 4 5 5 5 6 7 7 7
16 16 14 11 11 9 8 6 7 4 4 3 4 3 3 4 4 4 4 4 4 3 4 3 3 2 2 2 1 1 1 2 1 4 2 3 3 5 6 5 6 7 6
15 14 14 13 10 9 10 8 7 5 3 3 2 5 4 3 4 4 4 4 4 2 3 4 3 3 2 2 2 1 0 1 1 1 3 4 3 3 4 4 5 5 6
14 13 13 13 13 10 11 8 10 10 7 4 3 4 3 2 2 4 5 3 3 3 4 3 3 4 3 3 2 2 1 1 0 0 1 2 2 3 3 4 5 5 4
Wind_Direction
198 178 144 131 123 123 119 119 115 111 105 100 95 96 91 88 92 97 98 94 94 95 91 83 93 95 95 98 99 101 102 101 101 97 92 89 89 93 93 86 82 87 98
140 169 146 139 128 125 129 120 115 104 99 94 99 97 94 96 104 106 103 98 104 97 97 98 96 103 107 107 105 103 105 104 101 98 93 94 93 91 93 87 88 89 84
137 161 143 142 133 132 141 130 114 102 100 100 106 108 98 99 103 106 105 106 104 103 103 105 104 102 109 104 107 103 102 100 93 94 93 83 91 94 96 92 91 84 88
136 142 136 143 133 133 138 127 124 117 117 125 113 102 109 111 108 104 114 106 109 110 105 102 102 101 103 110 106 105 101 96 93 87 74 80 87 94 90 91 91 85 85
124 133 152 140 139 132 134 137 142 137 132 135 127 121 119 101 107 106 101 111 113 103 104 106 105 104 109 119 119 111 103 104 100 88 83 82 79 95 88 89 87 91 92
123 138 151 145 146 140 145 144 156 139 150 137 134 119 112 104 106 103 103 94 98 111 109 102 103 108 123 130 119 116 107 107 99 83 79 90 87 104 102 87 95 94 89
127 135 141 152 150 144 149 144 143 140 141 128 131 128 109 109 108 107 100 105 98 108 106 101 102 103 113 95 113 115 109 106 89 83 85 81 80 93 91 97 92 90 92
136 133 144 150 157 154 149 152 145 142 132 130 127 124 119 119 112 109 107 110 105 104 103 105 95 79 87 95 109 109 111 110 95 84 80 84 98 96 99 101 95 94 87
125 125 133 139 150 148 149 148 139 137 141 139 132 125 128 124 123 110 111 116 106 109 105 104 103 89 88 97 104 103 106 109 93 90 90 92 100 106 103 98 91 84 82
104 118 126 117 118 120 146 146 142 140 132 125 120 129 126 123 120 104 95 100 107 108 110 112 100 88 83 97 117 109 113 105 101 97 91 104 114 114 106 103 98 93 88
118 117 123 120 111 115 138 144 139 135 125 127 123 122 69 72 74 73 104 102 103 108 114 113 103 92 95 103 109 109 104 104 106 101 103 130 132 118 106 109 102 93 79
165 146 147 128 124 135 134 106 100 99 85 85 83 88 82 73 101 88 101 100 107 110 119 116 111 100 73 64 81 107 112 118 102 106 115 150 124 112 110 104 104 104 96
169 169 162 141 134 146 115 118 101 86 90 83 85 85 73 76 51 55 52 61 66 85 48 60 40 42 66 66 75 133 133 126 124 135 174 170 121 142 118 112 114 110 96
172 173 165 150 140 152 127 139 120 121 106 96 102 36 122 109 107 88 89 80 78 77 77 51 59 32 20 337 159 152 143 139 141 137 249 157 137 138 141 135 120 113 112
171 171 173 150 155 160 141 140 137 144 141 138 150 219 190 156 139 112 117 97 87 83 96 80 48 1 358 324 171 159 154 154 147 163 157 168 119 224 151 173 181 181 150
169 173 161 158 168 160 152 170 173 168 165 150 196 193 190 144 140 161 149 135 125 114 103 128 192 347 2 38 128 161 162 164 160 173 178 307 228 250 240 233 250 242 256
177 163 169 155 170 177 175 184 182 192 171 176 177 181 200 179 205 195 181 173 184 147 137 163 159 17 30 76 79 103 147 174 163 209 225 264 303 256 254 263 257 260 275
162 178 165 177 174 194 182 186 186 194 179 187 174 166 219 237 205 174 175 166 237 146 117 125 95 66 48 101 111 83 60 192 218 245 253 254 259 265 291 279 276 276 278
171 173 172 167 171 195 188 182 195 211 183 194 155 175 212 226 190 149 176 153 180 250 70 48 75 67 73 89 108 88 266 239 233 255 257 260 259 258 259 277 284 282 275
178 168 182 170 170 184 173 122 116 161 159 171 184 190 185 184 174 154 134 109 146 64 88 76 100 57 56 69 89 49 279 256 254 256 265 260 255 258 259 266 275 276 275
165 165 176 174 177 164 148 145 145 192 157 165 184 190 190 176 149 161 152 151 179 197 102 98 108 115 78 91 74 333 297 267 254 260 261 262 259 259 259 257 257 259 270
179 183 176 190 176 188 169 162 148 156 143 136 146 194 203 183 159 163 178 184 165 149 142 131 141 123 82 81 123 78 360 331 308 253 254 257 259 265 265 258 257 258 262
186 183 189 187 183 184 156 124 92 87 67 82 135 209 196 193 172 169 174 184 178 155 163 172 142 102 128 104 102 118 47 298 318 316 282 262 263 256 263 270 263 259 257
195 194 185 181 184 178 165 163 157 156 150 200 174 169 185 194 186 182 176 182 175 161 161 162 130 142 134 145 80 94 107 155 349 331 323 312 296 266 262 267 266 264 258
189 193 186 178 182 186 182 172 159 155 155 145 141 159 179 205 197 191 188 182 180 179 167 160 159 164 150 133 148 132 143 88 115 193 305 326 324 293 272 267 274 270 254
188 189 188 175 188 188 186 178 172 170 165 148 159 173 183 198 221 199 187 200 180 183 183 184 170 159 176 137 139 150 184 177 260 252 285 308 290 304 305 302 281 280 281